Hourly Weather Trat

Today, 1 August, Sunday

Time Temperature Precipitation Wind Pressure Humidity
00:00 +27°C° 0.6 mm 2 mps 754 mmHg 93%
01:00 +27°C° 0 mm 2 mps 754 mmHg 93%
02:00 +27°C° 0.4 mm 2 mps 754 mmHg 93%
03:00 +27°C° 0.4 mm 2 mps 753 mmHg 93%
04:00 +27°C° 0.4 mm 2 mps 753 mmHg 93%
05:00 +27°C° 0.5 mm 2 mps 753 mmHg 93%
06:00 +27°C° 0.5 mm 2 mps 753 mmHg 92%
07:00 +27°C° 0 mm 1 mps 753 mmHg 93%
08:00 +28°C° 0.4 mm 2 mps 754 mmHg 88%
09:00 +30°C° 0.4 mm 3 mps 754 mmHg 84%
10:00 +31°C° 0.4 mm 3 mps 754 mmHg 79%
11:00 +32°C° 0.3 mm 4 mps 754 mmHg 76%
12:00 +33°C° 0.3 mm 4 mps 753 mmHg 72%
13:00 +33°C° 0 mm 4 mps 753 mmHg 69%
14:00 +33°C° 0.1 mm 4 mps 752 mmHg 71%
15:00 +33°C° 0.1 mm 4 mps 752 mmHg 72%
16:00 +32°C° 0.1 mm 4 mps 751 mmHg 73%
17:00 +30°C° 0.5 mm 3 mps 752 mmHg 79%
18:00 +29°C° 0.5 mm 3 mps 752 mmHg 84%
19:00 +28°C° 0 mm 2 mps 752 mmHg 90%
20:00 +27°C° 0.4 mm 2 mps 753 mmHg 91%
21:00 +27°C° 0.4 mm 2 mps 754 mmHg 91%
22:00 +27°C° 0.4 mm 2 mps 754 mmHg 92%
23:00 +27°C° 0.7 mm 2 mps 754 mmHg 92%

Tomorrow, 2 August, Monday

Time Temperature Precipitation Wind Pressure Humidity
00:00 +27°C° 0.7 mm 2 mps 754 mmHg 93%
01:00 +27°C° 0.7 mm 2 mps 753 mmHg 93%
02:00 +27°C° 0.4 mm 2 mps 753 mmHg 93%
03:00 +27°C° 0.4 mm 2 mps 753 mmHg 93%
04:00 +26°C° 0.4 mm 2 mps 753 mmHg 93%
05:00 +27°C° 0.7 mm 1 mps 753 mmHg 93%
06:00 +27°C° 0.7 mm 1 mps 753 mmHg 94%
07:00 +27°C° 0.7 mm 1 mps 754 mmHg 94%
08:00 +28°C° 0.4 mm 2 mps 754 mmHg 91%
09:00 +28°C° 0.4 mm 2 mps 754 mmHg 88%
10:00 +29°C° 0.4 mm 3 mps 754 mmHg 85%
11:00 +29°C° 0.7 mm 3 mps 754 mmHg 85%
12:00 +30°C° 0.7 mm 3 mps 754 mmHg 85%
13:00 +30°C° 0.7 mm 4 mps 754 mmHg 84%
14:00 +30°C° 0.7 mm 3 mps 753 mmHg 85%
15:00 +29°C° 0.7 mm 3 mps 753 mmHg 85%
16:00 +29°C° 0.7 mm 3 mps 753 mmHg 86%
17:00 +29°C° 0.8 mm 3 mps 753 mmHg 88%
18:00 +28°C° 0.8 mm 2 mps 753 mmHg 90%
19:00 +27°C° 0.8 mm 2 mps 753 mmHg 92%
20:00 +27°C° 0.6 mm 2 mps 754 mmHg 92%
21:00 +27°C° 0.6 mm 2 mps 754 mmHg 93%
22:00 +27°C° 0.6 mm 2 mps 755 mmHg 93%
23:00 +27°C° 0.8 mm 2 mps 755 mmHg 93%

Day after tomorrow, 3 August, Tuesday

Time Temperature Precipitation Wind Pressure Humidity
00:00 +27°C° 0.8 mm 2 mps 754 mmHg 94%
01:00 +27°C° 0.8 mm 2 mps 754 mmHg 94%
02:00 +27°C° 1.3 mm 2 mps 754 mmHg 94%
03:00 +27°C° 1.3 mm 2 mps 753 mmHg 94%
04:00 +27°C° 1.3 mm 2 mps 753 mmHg 94%
05:00 +27°C° 0.8 mm 2 mps 754 mmHg 94%
06:00 +27°C° 0.8 mm 2 mps 754 mmHg 94%
07:00 +27°C° 0.8 mm 2 mps 754 mmHg 93%
08:00 +28°C° 0.9 mm 2 mps 754 mmHg 90%
09:00 +29°C° 0.9 mm 3 mps 755 mmHg 87%
10:00 +30°C° 0.9 mm 3 mps 755 mmHg 85%
11:00 +30°C° 1.5 mm 4 mps 754 mmHg 85%
12:00 +30°C° 1.5 mm 4 mps 754 mmHg 86%
13:00 +30°C° 1.5 mm 4 mps 754 mmHg 87%
14:00 +30°C° 1.7 mm 4 mps 753 mmHg 88%
15:00 +29°C° 1.7 mm 3 mps 753 mmHg 89%
16:00 +29°C° 1.7 mm 3 mps 753 mmHg 90%
17:00 +28°C° 1.7 mm 3 mps 753 mmHg 91%
18:00 +28°C° 1.7 mm 2 mps 754 mmHg 93%
19:00 +27°C° 1.7 mm 2 mps 754 mmHg 94%
20:00 +27°C° 1.3 mm 2 mps 754 mmHg 95%
21:00 +27°C° 1.3 mm 1 mps 755 mmHg 96%
22:00 +27°C° 1.3 mm 1 mps 755 mmHg 97%
23:00 +27°C° 1 mm 1 mps 755 mmHg 97%

4 August, Wednesday

Time Temperature Precipitation Wind Pressure Humidity
00:00 +27°C° 1 mm 2 mps 755 mmHg 97%
01:00 +27°C° 1 mm 2 mps 754 mmHg 97%
02:00 +27°C° 1.1 mm 2 mps 754 mmHg 97%
03:00 +27°C° 1.1 mm 1 mps 754 mmHg 96%
04:00 +27°C° 1.1 mm 1 mps 754 mmHg 96%
05:00 +27°C° 0.8 mm 2 mps 754 mmHg 95%
06:00 +27°C° 0.8 mm 2 mps 754 mmHg 95%
07:00 +27°C° 0.8 mm 2 mps 755 mmHg 94%
08:00 +28°C° 1 mm 2 mps 755 mmHg 91%
09:00 +29°C° 1 mm 3 mps 755 mmHg 88%
10:00 +30°C° 1 mm 3 mps 755 mmHg 86%
11:00 +30°C° 0.9 mm 3 mps 755 mmHg 84%
12:00 +30°C° 0.9 mm 4 mps 754 mmHg 83%
13:00 +30°C° 0.9 mm 4 mps 754 mmHg 81%
14:00 +30°C° 0.7 mm 4 mps 753 mmHg 83%
15:00 +30°C° 0.7 mm 4 mps 753 mmHg 84%
16:00 +30°C° 0.7 mm 4 mps 753 mmHg 85%
17:00 +29°C° 0.9 mm 3 mps 753 mmHg 88%
18:00 +28°C° 0.9 mm 3 mps 753 mmHg 91%
19:00 +27°C° 0.9 mm 2 mps 754 mmHg 94%
20:00 +27°C° 0.8 mm 2 mps 754 mmHg 94%
21:00 +27°C° 0.8 mm 2 mps 754 mmHg 95%
22:00 +27°C° 0.8 mm 1 mps 755 mmHg 96%
23:00 +27°C° 1.1 mm 1 mps 754 mmHg 96%

5 August, Thursday

Time Temperature Precipitation Wind Pressure Humidity
00:00 +26°C° 1.1 mm 1 mps 754 mmHg 96%
01:00 +26°C° 1.1 mm 1 mps 753 mmHg 96%
02:00 +26°C° 0.8 mm 1 mps 753 mmHg 96%
03:00 +26°C° 0.8 mm 1 mps 753 mmHg 95%
04:00 +26°C° 0.8 mm 2 mps 753 mmHg 95%
05:00 +27°C° 1.3 mm 2 mps 753 mmHg 94%
06:00 +27°C° 1.3 mm 2 mps 753 mmHg 94%
07:00 +27°C° 1.3 mm 2 mps 754 mmHg 93%
08:00 +28°C° 1.1 mm 2 mps 754 mmHg 91%
09:00 +29°C° 1.1 mm 3 mps 754 mmHg 88%
10:00 +30°C° 1.1 mm 3 mps 754 mmHg 86%
11:00 +30°C° 1.2 mm 3 mps 754 mmHg 85%
12:00 +30°C° 1.2 mm 3 mps 753 mmHg 84%
13:00 +30°C° 1.2 mm 3 mps 753 mmHg 83%
14:00 +30°C° 0.8 mm 3 mps 752 mmHg 84%
15:00 +30°C° 0.8 mm 3 mps 752 mmHg 84%
16:00 +30°C° 0.8 mm 3 mps 752 mmHg 85%
17:00 +29°C° 0.9 mm 3 mps 752 mmHg 88%
18:00 +28°C° 0.9 mm 3 mps 753 mmHg 90%
19:00 +27°C° 0.9 mm 2 mps 753 mmHg 93%
20:00 +27°C° 0.7 mm 2 mps 753 mmHg 94%
21:00 +27°C° 0.7 mm 2 mps 754 mmHg 94%
22:00 +27°C° 0.7 mm 2 mps 754 mmHg 94%
23:00 +27°C° 0.7 mm 2 mps 754 mmHg 94%

6 August, Friday

Time Temperature Precipitation Wind Pressure Humidity
00:00 +27°C° 0.7 mm 2 mps 753 mmHg 95%
01:00 +27°C° 0.7 mm 2 mps 753 mmHg 95%
02:00 +27°C° 1.3 mm 2 mps 753 mmHg 95%
03:00 +27°C° 1.3 mm 2 mps 753 mmHg 95%
04:00 +27°C° 1.3 mm 2 mps 753 mmHg 95%
05:00 +27°C° 1.6 mm 2 mps 753 mmHg 95%
06:00 +27°C° 1.6 mm 2 mps 753 mmHg 95%
07:00 +27°C° 1.6 mm 2 mps 754 mmHg 94%
08:00 +27°C° 1.6 mm 2 mps 754 mmHg 94%
09:00 +28°C° 1.6 mm 2 mps 754 mmHg 93%
10:00 +28°C° 1.6 mm 3 mps 754 mmHg 92%
11:00 +28°C° 1.8 mm 3 mps 754 mmHg 93%
12:00 +28°C° 1.8 mm 3 mps 754 mmHg 93%
13:00 +28°C° 1.8 mm 3 mps 753 mmHg 94%
14:00 +27°C° 2.4 mm 3 mps 753 mmHg 94%
15:00 +27°C° 2.4 mm 3 mps 753 mmHg 94%
16:00 +27°C° 2.4 mm 3 mps 752 mmHg 95%
17:00 +27°C° 1.4 mm 3 mps 753 mmHg 95%
18:00 +27°C° 1.4 mm 3 mps 753 mmHg 95%
19:00 +27°C° 1.4 mm 3 mps 753 mmHg 95%
20:00 +26°C° 0.1 mm 2 mps 754 mmHg 95%
21:00 +26°C° 0.1 mm 2 mps 754 mmHg 95%
22:00 +26°C° 0.1 mm 1 mps 754 mmHg 95%
23:00 +26°C° 0.6 mm 1 mps 754 mmHg 96%
Show more